Погода в Ишеевке

Россия / Ульяновская область     54°25′48″N   48°15′24″E
темп.,
°C
ветер,
м/с
пор.,
м/с
влажн.,
%
обл.,
%
осадки,
мм/ч
давл.,
гПа
погр.,
м
6 марта, сб
сб601:00−11зюз44910 0.0 101068
04:00−10з510927 0.0 1012191
07:00−12з59930 0.0 1013152
10:00−11зсз59900 0.0 1015247
13:00−10зсз34850 0.0 1015234
16:00−9юз12856 0.0 1014110
19:00−13ююз228448 0.0 101421
22:00−14зюз228726 0.0 101420
7 марта, вс
вс701:00−15з239128 0.0 101320
04:00−15з229547 0.0 101320
07:00−16зюз229686 0.0 101220
10:00−13юз349344 0.0 1012133
13:00−8юз48880 0.0 1010469
16:00−6ююз598337 0.0 1007674
19:00−7ююз7138498 0.0 1004767
22:00−6ююз8159199 0.6 1001884
8 марта, пн
пн801:00−5ююз91692100 0.4 996947
04:00−4з91578100 1.1 996781
07:00−10зюз715780 0.0 997338
10:00−9зюз614800 0.0 999522
13:00−5юз612790 0.0 998874
16:00−4зюз9148540 0.6 9981290
19:00−7зюз7158187 0.1 999485
22:00−10з5129144 0.1 1002226
9 марта, вт
вт901:00−11з59920 0.0 1004161
04:00−14з510930 0.0 1005177
07:00−15з59930 0.0 1007144
10:00−14зсз59910 0.0 1009283
13:00−13зсз58889 0.0 1011437
16:00−12зсз478749 0.0 1012609
19:00−16зсз489183 0.0 1013127
22:00−19зсз479446 0.0 1015104
10 марта, ср
ср1001:00−21зсз459610 0.0 101576
04:00−22зсз479736 0.0 101688
07:00−23зсз479779 0.0 1016128
10:00−21сз589587 0.1 1017281
13:00−18сз589090 0.0 1018479
16:00−18сз588894 0.0 1019573
19:00−22сз489565 0.0 1021145
22:00−24сз489664 0.0 1023126